Karlovy Vary, Czech Republic

4:16 PM CEST on July 24, 2017 (GMT +0200)
Karlovy Vary

Weather History for LKKV - May, 2013

Change the Weather History Date:

Monday, May 6, 2013

  Actual Average (EDQM) Record (EDQM)
Temperature  
Mean Temperature 53 °F -  
Max Temperature 60 °F 60 °F 84 °F (2003)
Min Temperature 46 °F 43 °F 35 °F (2005)
Degree Days  
Heating Degree Days 12    
Growing Degree Days 3 (Base 50)    
Moisture  
Dew Point 49 °F    
Average Humidity 80    
Maximum Humidity 100    
Minimum Humidity 63    
Precipitation  
Precipitation 0.00 in - - ()
Sea Level Pressure  
Sea Level Pressure 30.10 in    
Wind  
Wind Speed 8 mph ()    
Max Wind Speed 15 mph    
Max Gust Speed -    
Visibility 6.0 miles    
Events Rain    
Averages and records for this station are not official NWS values.
T = Trace of Precipitation, MM = Missing Value Source: Averaged Metar Reports

Daily Weather History Graph

Daily Weather History Graph

Search for Another Location

Airport or City:

Trip Planner

Search our weather history database for the weather conditions in past years. The results will help you decide how hot, cold, wet, or windy it might be!

Date:

Astronomy

May. 06, 2013 Rise Set
Actual Time 5:35 AM CEST 8:35 PM CEST
Civil Twilight 4:57 AM CEST 9:13 PM CEST
Nautical Twilight 4:08 AM CEST 10:02 PM CEST
Astronomical Twilight 3:07 AM CEST 11:04 PM CEST
Moon 3:50 AM CEST (5/6) 5:00 PM CEST (5/6)
Length of Visible Light 16h 15m
Length of Day
14h 59m
Waning Crescent, 13% of the Moon is Illuminated
May 6
Waning Crescent
May 10
New
May 18
First Quarter
May 25
Full
May 31
Last Quarter

Hourly Weather History & Observations

Time (CEST) Temp. Windchill Dew Point Humidity Pressure Visibility Wind Dir Wind Speed Gust Speed Precip Events Conditions
12:00 AM 50.0 °F - 44.6 °F 82% 30.21 in - ENE 4.6 mph - N/A   Clear
1:00 AM 50.0 °F - 44.6 °F 82% 30.21 in - ENE 5.8 mph - N/A   Clear
2:00 AM 48.2 °F - 42.8 °F 82% 30.21 in - East 4.6 mph - N/A   Clear
3:00 AM 46.4 °F 45.2 °F 44.6 °F 93% 30.18 in - East 3.5 mph - N/A   Clear
4:00 AM 50.0 °F - 46.4 °F 87% 30.18 in - Variable 2.3 mph - N/A   Clear
5:00 AM 50.0 °F - 46.4 °F 87% 30.15 in 6.2 mi ENE 6.9 mph - N/A   Partly Cloudy
6:00 AM 50.0 °F - 46.4 °F 87% 30.15 in 6.2 mi East 8.1 mph - N/A   Partly Cloudy
7:00 AM 51.8 °F - 46.4 °F 82% 30.15 in 6.2 mi ENE 6.9 mph - N/A   Partly Cloudy
8:00 AM 55.4 °F - 46.4 °F 72% 30.15 in 6.2 mi NE 9.2 mph - N/A   Partly Cloudy
8:30 AM 55.4 °F - 48.2 °F 77% 30.15 in 6.2 mi NE 9.2 mph - N/A   Partly Cloudy
9:00 AM 57.2 °F - 48.2 °F 72% 30.15 in 6.2 mi ENE 10.4 mph - N/A   Partly Cloudy
9:30 AM 57.2 °F - 48.2 °F 72% 30.15 in 6.2 mi ENE 11.5 mph - N/A   Scattered Clouds
10:00 AM 57.2 °F - 48.2 °F 72% 30.15 in 6.2 mi ENE 11.5 mph - N/A   Scattered Clouds
10:30 AM 57.2 °F - 46.4 °F 67% 30.15 in 6.2 mi ENE 12.7 mph - N/A   Mostly Cloudy
11:00 AM 57.2 °F - 48.2 °F 72% 30.15 in 6.2 mi ENE 12.7 mph - N/A   Scattered Clouds
11:30 AM 59.0 °F - 48.2 °F 67% 30.12 in 6.2 mi ENE 12.7 mph - N/A   Partly Cloudy
12:00 PM 59.0 °F - 48.2 °F 67% 30.12 in 6.2 mi East 11.5 mph - N/A   Partly Cloudy
12:30 PM 59.0 °F - 50.0 °F 72% 30.12 in 6.2 mi NE 12.7 mph - N/A   Partly Cloudy
1:00 PM 60.8 °F - 48.2 °F 63% 30.12 in 6.2 mi ENE 15.0 mph - N/A   Scattered Clouds
1:30 PM 60.8 °F - 50.0 °F 68% 30.12 in 6.2 mi ENE 15.0 mph - N/A   Scattered Clouds
2:00 PM 59.0 °F - 50.0 °F 72% 30.09 in 6.2 mi ENE 13.8 mph - N/A   Scattered Clouds
2:30 PM 60.8 °F - 50.0 °F 68% 30.09 in 6.2 mi ENE 13.8 mph - N/A   Scattered Clouds
3:00 PM 59.0 °F - 50.0 °F 72% 30.09 in 6.2 mi ENE 12.7 mph - N/A   Mostly Cloudy
3:30 PM 59.0 °F - 50.0 °F 72% 30.09 in 6.2 mi NE 10.4 mph - N/A   Mostly Cloudy
4:00 PM 60.8 °F - 51.8 °F 72% 30.06 in 6.2 mi ENE 11.5 mph - N/A   Scattered Clouds
4:30 PM 59.0 °F - 50.0 °F 72% 30.06 in 6.2 mi ENE 11.5 mph - N/A   Mostly Cloudy
5:00 PM 59.0 °F - 50.0 °F 72% 30.06 in 6.2 mi ENE 12.7 mph - N/A   Mostly Cloudy
5:30 PM 57.2 °F - 50.0 °F 77% 30.06 in 6.2 mi East 11.5 mph - N/A   Mostly Cloudy
6:00 PM 57.2 °F - 51.8 °F 82% 30.06 in 6.2 mi East 11.5 mph - N/A   Mostly Cloudy
6:05 PM 57.2 °F - 51.8 °F 82% 30.06 in 6.2 mi ENE 11.5 mph - N/A Rain Light Rain Showers
6:30 PM 57.2 °F - 51.8 °F 82% 30.04 in 6.2 mi ENE 10.4 mph - N/A Rain Light Rain Showers
6:44 PM 57.2 °F - 51.8 °F 82% 30.04 in 3.1 mi ENE 9.2 mph - N/A Rain Light Rain Showers
7:00 PM 55.4 °F - 53.6 °F 94% 30.04 in 6.2 mi ENE 9.2 mph - N/A Rain Light Rain Showers
7:30 PM 55.4 °F - 53.6 °F 94% 30.04 in 6.2 mi ENE 10.4 mph - N/A   Mostly Cloudy
8:00 PM 55.4 °F - 53.6 °F 94% 30.04 in 6.2 mi ENE 8.1 mph - N/A   Mostly Cloudy
8:30 PM 55.4 °F - 53.6 °F 94% 30.04 in 6.2 mi ENE 9.2 mph - N/A   Mostly Cloudy
8:54 PM 55.4 °F - 51.8 °F 88% 30.04 in 6.2 mi ENE 8.1 mph - N/A Rain Light Rain Showers
9:00 PM 55.4 °F - 51.8 °F 88% 30.04 in 6.2 mi ENE 8.1 mph - N/A Rain Light Rain Showers
9:07 PM 55.4 °F - 51.8 °F 88% 30.04 in 6.2 mi ENE 5.8 mph - N/A   Mostly Cloudy
9:30 PM 55.4 °F - 51.8 °F 88% 30.04 in 6.2 mi ENE 4.6 mph - N/A   Mostly Cloudy
10:00 PM 55.4 °F - 51.8 °F 88% 30.04 in 6.2 mi NE 5.8 mph - N/A Rain Light Rain Showers
10:23 PM 55.4 °F - 51.8 °F 88% 30.04 in 3.1 mi NE 3.5 mph - N/A Rain Light Rain Showers
11:00 PM 53.6 °F - 53.6 °F 100% 30.04 in 3.7 mi NE 6.9 mph - N/A   Mostly Cloudy